EHI
0 0 0 0 0 0 0 0 0 0 0 0 0 0 0 0 0 0 0 0 0 0 0 0 0 0 0 0 0 0 0 0 0 0 0 0 0 0 0 0 0 0 0
0 0 0 0 0 0 0 0 0 0 0 0 0 0 0 0 0 0 0 0 0 0 0 0 0 0 0 0 0 0 0 0 0 0 0 0 0 0 0 0 0 0 0
0 0 0 0 0 0 0 0 0 0 0 0 0 0 0 0 0 0 0 0 0 0 0 0 0 0 0 0 0 0 0 0 0 0 0 0 0 0 0 0 0 0 0
0 0 0 0 0 0 0 0 0 0 0 0 0 0 0 0 0 0 0 0 0 0 0 0 0 0 0 0 0 0 0 0 0 0 0 0 0 0 0 0 0 0 0
0 0 0 0 0 0 0 0 0 0 0 0 0 0 0 0 0 0 0 0 0 0 0 0 0 0 0 0 0 0 0 0 0 0 0 0 0 0 0 0 0 0 0
0 0 0 0 0 0 0 0 0 0 0 0 0 0 0 0 0 0 0 0 0 0 0 0 0 0 0 0 0 0 0 0 0 0 0 0 0 0 0 0 0 0 0
0 0 0 0 0 0 0 0 0 0 0 0 0 0 0 0 0 0 0 0 0 0 0 0 0 0 0 0 0 0 0 0 0 0 0 0 0 0 0 0 0 0 0
0 0 0 0 0 0 0 0 0 0 0 0 0 0 0 0 0 0 0 0 0 0 0 0 0 0 0 0 0 0 0 0 0 0 0 0 0 0 0 0 0 0 0
0 0 0 0 0 0 0 0 0 0 0 0 0 0 0 0 0 0 0 0 0 0 0 0 0 0 0 0 0 0 0 0 0 0 0 0 0 0 0 0 0 0 0
0 0 0 0 0 0 0 0 0 0 0 0 0 0 0 0 0 0 0 0 0 0 0 0 0 0 0 0 0 0 0 0 0 0 0 0 0 0 0 0 0 0 0
0 0 0 0 0 0 0 0 0 0 0 0 0 0 0 0 0 0 0 0 0 0 0 0 0 0 0 0 0 0 0 0 0 0 0 0 0 0 0 0 0 0 0
0 0 0 0 0 0 0 0 0 0 0 0 0 0 0 0 0 0 0 0 0 0 0 0 0 0 0 0 0 0 0 0 0 0 0 0 0 0 0 0 0 0 0
0 0 0 0 0 0 0 0 0 0 0 0 0 0 0 0 0 0 0 0 0 0 0 0 0 0 0 0 0 0 0 0 0 0 0 0 0 0 0 0 0 0 0
0 0 0 0 0 0 0 0 0 0 0 0 0 0 0 0 0 0 0 0 0 0 0 0 0 0 0 0 0 0 0 0 0 0 0 0 0 0 0 0 0 0 0
0 0 0 0 0 0 0 0 0 0 0 0 0 0 0 0 0 0 0 0 0 0 0 0 0 0 0 0 0 0 0 0 0 0 0 0 0 0 0 0 0 0 0
0 0 0 0 0 0 0 0 0 0 0 0 0 0 0 0 0 0 0 0 0 0 0 0 0 0 0 0 0 0 0 0 0 0 0 0 0 0 0 0 0 0 0
0 0 0 0 0 0 0 0 0 0 0 0 0 0 0 0 0 0 0 0 0 0 0 0 0 0 0 0 0 0 0 0 0 0 0 0 0 0 0 0 0 0 0
0 0 0 0 0 0 0 0 0 0 0 0 0 0 0 0 0 0 0 0 0 0 0 0 0 0 0 0 0 0 0 0 0 0 0 0 0 0 0 0 0 0 0
0 0 0 0 0 0 0 0 0 0 0 0 0 0 0 0 0 0 0 0 0 0 0 0 0 0 0 0 0 0 0 0 0 0 0 0 0 0 0 0 0 0 0
0 0 0 0 0 0 0 0 0 0 0 0 0 0 0 0 0 0 0 0 0 0 0 0 0 0 0 0 0 0 0 0 0 0 0 0 0 0 0 0 0 0 0
0 0 0 0 0 0 0 0 0 0 0 0 0 0 0 0 0 0 0 0 0 0 0 0 0 0 0 0 0 0 0 0 0 0 0 0 0 0 0 0 0 0 0
0 0 0 0 0 0 0 0 0 0 0 0 0 0 0 0 0 0 0 0 0 0 0 0 0 0 0 0 0 0 0 0 0 0 0 0 0 0 0 0 0 0 0
0 0 0 0 0 0 0 0 0 0 0 0 0 0 0 0 0 0 0 0 0 0 0 0 0 0 0 0 0 0 0 0 0 0 0 0 0 0 0 0 0 0 0
0 0 0 0 0 0 0 0 0 0 0 0 0 0 0 0 0 0 0 0 0 0 0 0 0 0 0 0 0 0 0 0 0 0 0 0 0 0 0 0 0 0 0
0 0 0 0 0 0 0 0 0 0 0 0 0 0 0 0 0 0 0 0 0 0 0 0 0 0 0 0 0 0 0 0 0 0 0 0 0 0 0 0 0 0 0
0 0 0 0 0 0 0 0 0 0 0 0 0 0 0 0 0 0 0 0 0 0 0 0 0 0 0 0 0 0 0 0 0 0 0 0 0 0 0 0 0 0 0
Wind_Speed
14 9 12 12 12 14 15 16 15 13 10 6 5 5 5 5 5 6 7 8 7 7 6 4 4 4 4 4 4 3 4 3 2 3 5 5 6 6 5 5 6 8 9
9 10 12 14 17 18 18 17 17 16 15 10 6 4 4 4 4 5 7 8 8 7 7 6 5 5 4 5 4 3 2 3 2 2 4 5 5 3 6 5 6 7 6
15 12 14 16 17 19 21 19 19 18 16 12 6 3 2 2 3 5 6 8 8 8 7 7 6 6 5 5 5 5 5 4 3 3 3 3 5 7 5 5 6 6 6
13 12 14 15 20 21 18 18 18 18 16 15 12 11 10 9 10 6 6 7 8 8 8 7 7 7 6 6 6 6 5 5 4 3 4 5 5 5 8 6 4 7 8
13 14 16 18 18 16 15 17 16 17 17 17 17 15 12 9 5 5 7 8 7 8 9 8 7 7 6 7 7 6 6 5 5 4 4 5 6 7 7 11 10 8 6
10 12 11 10 12 12 14 15 17 18 17 18 18 18 16 12 9 9 9 8 6 7 9 9 8 8 7 7 8 7 7 7 7 6 6 5 5 5 7 9 12 12 10
7 9 10 12 13 14 17 16 18 20 19 19 19 19 18 16 16 13 12 10 7 7 10 9 8 7 8 8 7 7 8 8 8 8 7 7 8 7 7 10 11 13 12
7 9 11 11 12 14 16 17 20 21 19 20 20 18 16 13 12 13 10 11 9 9 9 10 9 9 9 8 7 7 8 7 9 10 9 8 8 8 8 9 10 13 12
8 9 9 9 11 13 16 19 20 20 20 21 19 17 17 15 14 12 11 9 8 8 9 10 10 9 9 9 8 7 8 8 9 9 10 9 8 8 8 9 9 10 13
9 9 8 9 9 11 11 13 17 20 19 18 18 16 17 17 14 12 13 12 11 10 9 10 10 9 9 9 8 8 8 9 9 8 9 10 9 8 8 9 9 10 12
10 9 8 7 7 8 9 13 15 16 16 18 18 17 16 16 14 14 14 13 11 11 11 11 10 10 10 9 9 9 9 10 10 10 10 12 11 9 9 9 9 10 11
10 10 9 7 7 8 10 12 14 16 17 16 16 17 15 14 15 16 14 13 12 12 12 11 11 11 10 10 10 11 10 10 11 11 11 13 10 11 10 9 11 11 11
11 9 8 7 8 9 10 12 13 15 14 13 15 16 16 16 17 17 14 14 13 12 12 11 12 11 11 10 10 10 10 11 12 12 12 13 11 12 11 11 12 11 12
11 10 9 9 8 8 10 11 13 13 13 13 15 17 18 19 18 15 14 14 14 13 13 12 12 11 10 10 10 10 10 11 12 12 13 13 12 13 13 12 13 13 13
12 10 10 9 9 8 9 11 12 12 13 15 17 19 17 15 15 15 15 14 14 14 12 12 11 10 9 9 10 10 11 11 12 12 12 13 16 19 17 13 12 11 10
12 12 11 10 10 10 10 11 13 12 13 16 19 16 15 15 16 16 15 14 14 13 12 12 11 11 10 15 19 14 10 11 12 11 10 11 14 18 23 25 24 20 13
12 12 12 11 11 11 10 11 11 10 13 16 16 15 15 16 16 15 15 15 15 13 13 12 12 12 13 19 20 20 12 9 9 9 9 9 11 16 10 17 23 20 23
11 13 12 12 12 11 9 8 8 10 13 15 15 15 16 17 15 15 16 15 13 13 12 12 12 11 13 19 19 19 12 8 8 8 9 10 10 11 14 12 12 11 12
13 13 13 13 12 12 9 7 8 9 12 15 16 16 16 16 15 17 16 14 12 11 11 10 11 11 12 17 18 17 7 7 8 8 9 9 10 18 23 14 10 10 10
13 13 12 11 12 12 7 7 9 10 15 16 15 13 14 16 16 16 14 11 11 11 10 10 10 10 10 14 17 17 6 7 7 7 8 14 15 19 21 10 7 9 9
14 13 12 11 12 10 6 9 10 14 14 11 10 11 13 15 14 12 11 10 10 9 9 9 9 9 11 13 17 17 7 7 7 7 6 7 16 19 19 15 7 11 10
13 12 11 13 12 9 7 10 14 13 9 8 10 11 12 12 11 11 10 10 10 10 9 8 8 7 8 12 14 17 15 12 7 6 5 7 16 17 17 12 13 16 11
12 11 11 13 13 9 7 12 14 10 7 8 10 10 10 11 10 11 12 10 10 9 8 8 8 7 6 8 15 16 15 15 8 5 10 13 15 14 9 12 16 12 5
12 11 11 13 15 13 10 11 12 8 7 9 9 8 9 9 10 9 10 10 10 10 9 9 8 6 5 6 6 6 7 10 8 6 8 12 12 9 10 10 8 5 5
10 9 11 13 15 14 14 12 9 7 8 8 8 7 8 8 9 10 10 11 11 11 11 9 8 7 7 9 11 7 6 5 5 4 2 2 3 4 4 4 5 4 5
11 12 12 13 15 14 15 12 9 7 8 8 7 6 6 7 8 8 7 15 13 17 19 15 11 9 10 10 11 12 10 9 7 3 2 3 3 4 5 5 5 5 5
Wind_Direction
234 205 197 195 193 195 197 197 195 190 177 169 174 181 203 201 201 204 201 198 197 196 195 205 208 209 215 228 236 249 270 268 264 288 293 277 260 256 259 260 272 282 285
228 207 197 196 199 200 201 200 200 193 191 190 176 174 172 187 197 198 200 200 198 198 202 201 207 210 216 230 232 224 249 261 266 274 309 316 306 277 273 260 271 280 282
228 214 203 203 203 205 204 203 202 198 196 186 161 144 134 145 180 201 205 204 200 202 205 203 205 210 208 221 227 220 222 246 253 212 230 282 295 311 280 267 276 277 283
226 217 208 207 209 211 204 205 201 200 195 186 187 185 191 199 201 193 195 197 200 203 206 207 207 211 211 219 228 224 215 222 248 239 222 223 239 283 302 295 274 274 281
222 222 216 215 214 208 203 204 202 202 196 195 198 199 207 207 182 180 190 200 205 208 209 209 208 213 215 219 224 229 224 218 231 233 230 239 243 235 261 291 299 293 276
227 231 226 215 213 202 201 200 202 206 200 199 202 204 208 200 188 194 199 203 206 210 213 213 211 214 216 220 224 227 229 230 233 238 232 231 238 243 248 272 290 295 294
235 232 224 215 213 203 202 201 203 208 203 202 205 208 209 203 203 201 203 201 203 208 213 211 210 213 218 222 223 226 231 231 233 236 238 238 242 246 253 267 281 287 291
248 237 230 221 216 209 203 201 205 210 204 205 209 209 208 206 210 207 201 203 206 209 204 206 211 215 218 224 222 228 234 233 236 244 242 244 247 244 247 255 274 286 289
266 252 244 228 220 212 207 204 207 210 207 207 208 208 207 208 209 205 204 205 207 206 205 207 213 218 220 223 223 232 236 236 240 245 245 246 250 247 246 250 253 266 286
281 269 255 241 229 221 214 206 209 212 210 207 207 209 209 210 208 202 205 206 206 205 203 208 214 219 222 224 225 233 238 239 244 245 246 248 250 250 250 249 249 249 261
282 275 266 250 236 222 210 209 212 213 211 209 208 210 208 207 205 207 209 207 205 204 208 211 214 219 224 224 226 234 236 241 248 249 248 252 251 253 253 251 251 251 252
278 274 270 262 244 229 219 216 214 215 215 209 207 211 208 203 206 211 209 204 205 206 209 210 215 221 225 224 226 236 240 240 247 250 250 255 256 253 254 254 254 254 251
289 288 281 267 253 239 227 222 219 220 215 207 208 210 209 206 209 210 206 203 204 206 208 210 216 221 224 226 229 234 240 242 246 249 250 255 255 258 258 257 258 257 257
294 293 289 278 264 247 233 228 227 219 212 207 210 213 212 210 210 207 203 202 202 204 208 212 217 221 224 228 232 236 241 245 249 250 250 252 252 256 260 261 259 259 261
306 300 293 288 278 260 243 232 230 219 209 210 214 218 214 210 208 205 203 202 202 206 207 211 217 220 223 227 230 236 241 245 251 252 251 251 257 260 266 267 266 263 263
308 304 300 293 285 271 255 240 233 221 209 214 220 218 211 208 207 205 202 201 203 204 203 210 215 219 226 240 246 246 239 243 249 254 253 256 266 273 280 286 288 286 281
303 301 297 289 284 275 258 246 238 218 212 219 222 216 211 210 208 204 200 202 201 200 205 210 213 222 231 243 251 257 256 246 247 249 256 266 267 280 277 282 287 289 289
304 302 297 292 289 282 271 255 237 219 218 222 223 217 211 211 206 202 204 204 199 200 206 209 213 221 233 243 252 259 261 255 248 247 251 259 266 271 276 271 269 267 268
293 291 288 289 289 288 282 264 246 229 226 228 226 219 212 210 205 205 205 200 196 200 205 207 210 218 233 243 251 259 252 254 253 253 255 259 260 275 286 285 277 277 274
297 296 297 296 293 293 287 262 253 239 236 235 230 219 211 210 208 207 202 194 193 199 200 209 211 217 227 240 249 256 249 253 258 257 257 270 276 284 292 288 278 282 282
299 301 302 300 296 298 290 267 261 251 249 243 230 219 212 211 209 202 195 187 189 190 197 208 213 217 227 241 249 254 244 245 256 262 258 258 283 292 297 300 284 285 297
306 309 309 306 304 302 287 274 270 268 260 238 228 220 211 206 202 194 190 185 185 190 197 205 217 221 229 236 245 251 254 256 252 259 260 266 287 295 303 307 302 307 316
309 311 309 307 306 302 283 276 281 281 261 239 230 221 208 202 196 191 187 183 186 191 196 201 215 221 216 230 242 250 257 265 263 256 274 286 296 306 311 307 307 313 308
310 310 313 311 309 309 297 278 284 281 258 247 237 217 204 201 196 194 190 188 189 192 195 201 210 215 214 215 227 239 253 259 268 274 282 292 301 304 301 305 309 302 284
304 305 305 303 302 305 302 295 288 277 261 251 237 217 205 199 198 200 199 196 198 195 193 199 197 197 211 222 222 219 223 225 238 253 243 268 291 293 293 293 292 288 291
302 303 302 302 304 306 303 300 292 271 257 255 239 218 205 198 195 197 205 215 207 210 210 207 200 209 217 228 232 237 247 256 264 259 246 267 276 282 289 295 298 296 294